Flag for U.S.A. Weather past 2 weeks in Livonia, Michigan, U.S.A.

Now
75 °F

Scattered clouds.


Feels Like: 75 °F
Forecast: 70 / 86 °F
Wind: No wind

Location: Detroit Metropolitan Wayne County Airport

Current Time: Sep 3, 2015 at 9:12:21 AM

Latest Report: Sep 3, 2015 at 8:53 AM


Visibility: 5 mi

Pressure: 29.97 "Hg

Humidity: 82%

Dew point: 69 °F

Location of LivoniaLocation

Historic Weather in Livonia — Graph

°F

Livonia temperature yesterday

Maximum temperature yesterday: 90 °F (at 5:53 PM)
Minimum temperature yesterday: 70 °F (at 6:53 AM)
Average temperature yesterday: 79 °F

Past Weeks' High & Low Weather Summary

 TemperatureHumidityPressure
High90 °F (Sep 2, 5:53 PM)94% (Aug 20, 3:00 AM)30.22 "Hg (Aug 20, 3:00 AM)
Low54 °F (Aug 27, 6:53 AM)36% (Aug 21, 1:53 PM)29.68 "Hg (Aug 20, 1:53 AM)
Average70 °F71%30.02 "Hg
* Reported Aug 19 7:53 AM — Sep 3 7:53 AM, Livonia, Weather by CustomWeather, © 2015

Note: Actual official high and low records may vary slightly from our data, if they occured in-between our weather recording intervals... More about our weather records

Advertising

Livonia weather history for previous 24 hours

 ConditionsComfort  
Time TempWeatherWind HumidityBarometerVisibility
7:53 AM
Thu, Sep 3
72 °FFog.No wind91%29.97 "Hg3 mi
6:53 AM70 °FFog.No wind90%29.97 "Hg3 mi
5:53 AM72 °FFog.No wind87%29.96 "Hg5 mi
4:53 AM73 °FMostly cloudy.No wind84%29.95 "Hg6 mi
3:53 AM74 °FMostly cloudy.No wind82%29.95 "Hg5 mi
2:53 AM73 °FPassing clouds.6 mph84%29.94 "Hg7 mi
1:53 AM74 °FPartly cloudy.No wind85%29.96 "Hg7 mi
12:53 AM75 °FPartly cloudy.3 mph79%29.96 "Hg8 mi
11:53 PM
Wed, Sep 2
77 °FPartly cloudy.No wind71%29.97 "Hg8 mi
10:53 PM76 °FPassing clouds.6 mph74%29.97 "Hg8 mi
9:53 PM80 °FPassing clouds.3 mph58%29.98 "Hg10 mi
8:53 PM81 °FScattered clouds.5 mph54%29.97 "Hg10 mi
7:53 PM85 °FScattered clouds.7 mph57%29.95 "Hg9 mi
6:53 PM88 °FScattered clouds.10 mph50%29.93 "Hg9 mi
5:53 PM90 °FScattered clouds.16 mph47%29.92 "Hg9 mi
4:53 PM89 °FBroken clouds.13 mph55%29.95 "Hg9 mi
3:53 PM89 °FBroken clouds.13 mph57%29.96 "Hg9 mi
2:53 PM88 °FPartly sunny.13 mph59%29.99 "Hg10 mi
1:53 PM86 °FPartly sunny.8 mph63%30.00 "Hg10 mi
12:53 PM83 °FPartly sunny.10 mph68%30.02 "Hg10 mi
11:53 AM81 °FBroken clouds.10 mph67%30.04 "Hg10 mi
10:53 AM82 °FBroken clouds.7 mph63%30.04 "Hg10 mi
9:53 AM79 °FPartly sunny.6 mph74%30.05 "Hg9 mi
Weather by CustomWeather, © 2015

See weather overviewHow to use our weather pages